Weather in Bobrovka

Russia / Novosibirsk Oblast     53°56′01″N   82°07′09″E
temp.,
°C
wind,
m/s
gust,
m/s
humid.,
%
clouds,
%
prec.,
mm/h
press.,
hPa
HPBL,
m
16 may, sun
sun1601:00+15wsw4116343 0.3 1018198
04:00+13sw4107553 0.7 1016191
07:00+14w3127313 0.9 1016285
10:00+20w575568 0.0 1015505
13:00+25wsw693912 0.0 10131486
16:00+27w71133100 0.0 10112919
19:00+24w101443100 0.3 10101147
22:00+15sw71390100 7.3 1012402
17 may, mon
mon1701:00+14nne48944 8.5 1012246
04:00+11nnw379837 0.0 1014182
07:00+12nne478982 0.0 1016431
10:00+15nne34716 0.0 1017671
13:00+19nnw345660 0.0 10171391
16:00+21nw454633 0.0 10161780
19:00+21nw354828 0.0 10161396
22:00+16s22675 0.0 101417
18 may, tue
tue1801:00+15ssw4107470 0.0 1013174
04:00+13ssw414865 1.1 1011283
07:00+15sw510775 1.1 1008206
10:00+22w610545 0.0 1007553
13:00+25wnw7114038 0.0 10061958
16:00+25wnw811365 0.0 10052672
19:00+23nw694540 0.0 10051695
22:00+16ene336882 0.0 100635
19 may, wed
wed1901:00+15ssw1278100 0.4 100543
04:00+13sse1294100 1.2 1003111
07:00+13nw359472 2.0 1003313
10:00+11nne71094100 0.9 1003520
13:00+8nne81292100 3.1 1006786
16:00+7ne61280100 3.4 1009903
19:00+10nne61158100 3.5 10101625
22:00+6nne366458 0.0 1013104
20 may, thu
thu2001:00+4nnw35624 0.0 101473
04:00+4nnw6117676 0.0 1015376
07:00+2n6128949 0.8 1017800
10:00+5n8104968 0.1 10181985
13:00+7n71037100 0.1 10192694
16:00+8n71037100 0.0 10202707
19:00+8n58405 0.0 10212478
22:00+4nw345290 0.0 102356